Cloud_Cover
0 0 0 0 5 5 5 4 2 5 5 2 5 5 5 5 5 5 5 5 80 20 1 11 26 61 8 5 4 2 0 0 2 3 1 0 0 0 0 0 0 2 0
0 0 0 0 0 5 9 5 4 4 5 5 5 5 5 5 5 5 5 5 60 7 6 2 5 28 7 5 1 6 0 0 0 4 1 0 5 0 0 0 0 4 0
0 0 0 0 0 6 16 22 4 5 3 4 5 5 5 34 6 5 5 5 5 93 5 5 92 100 8 68 51 5 0 1 2 15 70 20 1 0 0 0 0 0 0
0 0 0 0 0 5 5 29 4 5 3 5 14 5 5 5 5 5 7 5 5 15 52 81 100 100 56 10 4 0 1 1 44 100 100 100 5 0 0 4 0 0 1
0 0 0 3 0 1 5 5 3 5 3 5 3 4 5 5 5 5 5 6 5 5 6 99 100 100 100 5 6 5 5 0 100 100 100 46 0 0 0 0 0 26 0
0 0 0 5 0 0 5 5 5 5 5 5 100 7 5 5 33 79 40 96 5 5 14 58 100 100 100 72 46 5 5 4 95 58 98 5 1 0 1 4 2 5 1
16 0 0 0 0 0 4 5 5 5 5 5 5 5 5 98 100 100 100 40 6 5 5 62 39 93 99 100 100 84 5 5 5 28 100 100 100 38 0 0 5 1 4
0 0 0 0 0 2 0 5 5 5 12 6 5 5 13 93 100 100 100 32 22 80 61 72 20 16 39 100 100 100 63 6 5 100 100 100 100 0 0 0 0 3 9
0 0 0 0 0 0 0 4 5 5 5 8 5 14 30 100 100 100 100 73 6 81 20 41 5 6 16 97 100 100 100 11 5 94 100 100 6 2 0 0 5 17 2
0 0 0 0 0 0 0 0 2 5 5 6 13 62 100 100 100 100 100 100 96 22 95 5 5 32 58 93 96 100 100 100 37 10 95 97 5 0 0 0 6 59 5
61 1 0 0 0 0 0 0 0 5 5 99 72 89 100 100 100 100 100 100 5 5 5 5 5 5 5 32 5 86 100 100 100 20 17 6 5 5 2 1 6 5 5
56 26 0 0 0 0 0 0 0 5 16 93 76 100 100 100 100 100 100 47 7 4 5 5 5 5 2 7 41 7 94 100 100 100 49 100 5 5 5 5 5 5 5
1 56 99 6 0 0 36 0 0 5 3 5 94 100 100 100 100 100 100 47 79 56 54 5 5 5 1 27 96 27 26 81 100 100 100 43 100 4 5 1 4 8 3
3 30 76 19 20 0 36 18 0 3 7 100 57 99 100 81 96 91 100 47 99 62 48 8 49 98 47 100 25 100 9 64 99 98 93 100 84 5 5 5 4 1 0
0 54 87 4 6 0 36 83 51 100 18 100 53 95 100 5 81 100 100 75 97 78 99 85 71 96 73 38 100 63 85 53 95 70 70 90 80 77 10 5 5 3 0
0 0 50 12 20 4 0 10 4 95 80 93 97 5 5 64 67 100 96 89 100 100 84 91 52 100 87 37 41 12 12 99 100 92 82 98 86 100 100 100 5 5 3
0 0 4 5 100 0 0 0 2 2 14 100 100 98 20 37 70 55 79 100 100 99 100 100 100 100 97 47 51 99 4 67 100 100 63 26 80 75 100 100 17 6 26
2 0 5 54 9 40 1 1 0 0 4 97 94 98 2 20 43 5 100 100 100 100 100 98 100 100 100 100 37 33 100 79 65 99 42 67 28 100 93 100 100 44 86
69 4 5 4 69 22 3 0 30 86 100 90 37 4 33 17 64 66 36 90 100 100 100 100 97 100 100 100 73 18 100 98 100 53 90 15 75 97 90 98 84 100 100
4 0 0 5 58 10 0 1 4 4 17 98 91 2 34 100 98 100 82 33 96 100 100 100 98 100 100 100 84 96 99 100 98 96 63 93 63 20 66 19 93 18 98
100 88 98 0 5 33 100 100 100 21 4 12 83 61 54 22 100 100 100 100 7 5 30 100 100 92 100 100 100 100 88 100 100 100 100 26 56 58 22 58 9 93 9
88 0 38 3 4 65 5 4 6 5 5 5 78 88 17 19 21 40 38 69 100 13 16 44 87 46 97 100 100 8 90 100 100 100 100 100 62 6 13 30 73 27 75
1 0 4 5 5 5 5 2 1 5 73 16 6 43 62 4 48 3 5 86 99 100 38 7 97 36 74 94 100 83 75 55 100 100 100 92 99 24 51 84 79 98 77
73 47 100 81 79 21 62 6 71 72 35 17 0 13 78 65 100 100 99 71 9 94 63 14 6 59 34 83 100 85 6 14 52 97 100 100 100 99 98 88 76 68 94
61 81 100 28 42 100 90 89 97 100 94 73 48 30 14 56 100 100 100 9 49 100 46 68 31 5 3 5 54 54 5 99 50 100 61 62 100 98 46 100 88 97 80
100 94 100 20 83 5 98 94 57 100 100 100 100 100 100 100 67 85 100 79 94 76 15 81 76 100 21 18 5 5 15 5 19 64 82 21 92 100 15 69 100 100 84